Flag for U.S.A. Weather past 2 weeks in Howland Island, U.S.A.

Now
82 °F

Passing clouds.


Feels Like: 91 °F
Forecast: 82 / 87 °F
Wind: No wind

Location: Funafuti

Current Time: Apr 27, 2015 at 7:01:56 AM

Latest Report: Apr 27, 2015 at 6:00 AM


Visibility: N/A

Pressure: 29.83 "Hg

Humidity: 84%

Dew point: 77 °F

Location of Howland IslandLocation

Historic Weather in Howland Island — Graph

°F

Howland Island temperature yesterday

Maximum temperature yesterday: 91 °F (at 3:00 PM)
Minimum temperature yesterday: 81 °F (at 12:00 AM)
Average temperature yesterday: 85 °F

Past Weeks' High & Low Weather Summary

 TemperatureHumidityPressure
High91 °F (Apr 17, 2:00 PM)100% (Apr 12, 1:00 PM)29.95 "Hg (Apr 12, 1:00 PM)
Low77 °F (Apr 12, 7:00 PM)66% (Apr 16, 9:00 AM)29.71 "Hg (Apr 19, 4:00 PM)
Average84 °F80%29.81 "Hg
* Reported Apr 12 5:00 AM — Apr 27 5:00 AM, Howland Island, Weather by CustomWeather, © 2015

Note: Actual official high and low records may vary slightly from our data, if they occured in-between our weather recording intervals... More about our weather records

Advertising

Howland Island weather history for previous 24 hours

 ConditionsComfort  
Time TempWeatherWind HumidityBarometerVisibility
5:00 AM
Mon, Apr 27
81 °FScattered showers. Passing clouds.3 mph89%29.80 "HgN/A
4:00 AM81 °FPartly cloudy.No wind89%29.80 "HgN/A
3:00 AM82 °FPassing clouds.No wind79%29.83 "HgN/A
1:00 AM82 °FScattered showers. Partly cloudy.No wind84%29.83 "HgN/A
12:00 AM82 °FRain showers. Partly cloudy.6 mph79%29.83 "HgN/A
11:00 PM
Sun, Apr 26
84 °FScattered showers. Partly cloudy.3 mph84%29.86 "HgN/A
10:00 PM82 °FPartly cloudy.2 mph89%29.86 "HgN/A
9:00 PM82 °FScattered showers. Partly cloudy.1 mph89%29.86 "HgN/A
8:00 PM82 °FPassing clouds.2 mph84%29.83 "HgN/A
7:00 PM84 °FPassing clouds.3 mph79%29.80 "HgN/A
6:00 PM84 °FPassing clouds.8 mph79%29.80 "HgN/A
5:00 PM86 °FScattered clouds.3 mph75%29.77 "HgN/A
4:00 PM86 °FScattered clouds.3 mph70%29.77 "HgN/A
3:00 PM91 °FPassing clouds.6 mph67%29.77 "HgN/A
2:00 PM90 °FPassing clouds.6 mph71%29.77 "HgN/A
1:00 PM90 °FScattered clouds.3 mph71%29.80 "HgN/A
12:00 PM90 °FPassing clouds.3 mph71%29.83 "HgN/A
11:00 AM88 °FScattered clouds.3 mph70%29.86 "HgN/A
10:00 AM84 °FScattered showers. Scattered clouds.2 mph84%29.86 "HgN/A
9:00 AM88 °FScattered clouds.7 mph75%29.86 "HgN/A
8:00 AM86 °FScattered clouds.3 mph75%29.86 "HgN/A
7:00 AM84 °FScattered clouds.3 mph79%29.83 "HgN/A
Weather by CustomWeather, © 2015

See weather overviewHow to use our weather pages